Showing default

LEMUR 2 MONSON, 42839

Orbit data source: Space-Track

LEMUR 2 MONSON, 42839 is a payload satellite owned by Spire (US) in SSO that was launched on Fri, 14 Jul 2017 UTC via a SOYUZ-2-1A launch vehicle from the Tyuratam Missile And Space Complex (TTMTR). Payload-class satellites include a variety of spacecraft equipped with specific instruments for various scientific and technological missions. These include communications satellites like Starlink; space stations such as the ISS; scientific satellites like the Hubble; Earth observation satellites from companies like Planet Labs, Umbra, and HawkEye 360; GPS; miniature CubeSats for education and research; and military/defense satellites.

Loading next visibility...
Identifier
42839, 2017-042Q
Orbit
SSO
Country
Flag of USUS
Related business
Manufacturer
Spire/Glasgow
Mission
Operational Commercial Com/MetRO
Bus & Motor
CUBESAT 3U, Unknown motor
Mass
4 kg wet, 4 kg dry
Launch date (UTC)
2017-07-14 (8 years ago)
Launch vehicle
SOYUZ-2-1A
Launch site
Tyuratam Missile And Space Complex (TTMTR)
Object type
Payload
Rocket body
Debris
Shape & HBR
Box, 0.5 m
Radar Cross Section
0.093 m², Small (<0.1 m²)

Expand to show TLE details & history
Last TLE update: 13 hours ago

TLE from 13 hours ago
0 LEMUR 2 MONSON
1 42839U 17042Q   25287.25906088  .00015707  00000-0  74520-3 0  9993
2 42839  97.3996 106.0164 0008483 137.1787 223.0110 15.19322996450719
Epoch: 2025-10-14T06:13Z
TLE epoch observation values (Epoch: 2025-10-14T06:13:02.860Z)
Latitude
0.00001°
Longitude
-10.29558°
Altitude
515.25 km
Speed
7.604 km/s
True Right ascension
07h 04m 03s
True Declination
0° 00' 00"
Sunlit
Object was in daylight at epoch
Visualization orbit readout
Latitude
Unknown
Longitude
Unknown
Altitude
Unknown
Speed
Unknown
Apparent Right ascension
Unknown
Apparent Declination
Unknown
Sunlit
N/A
Visualization observer readout
Local Sidereal Time
13:38:30
Azimuth
Unknown
Elevation
Unknown
Doppler factor
Unknown
Orbital elements
Apogee altitude
510.691 km
Perigee altitude
499.013 km
Semi-major axis
6,882.989 km
Eccentricity
0.00085
Inclination
97.3996°
RAAN
106.0164°
Arg. of periapsis
137.1787°
True anomaly
222.94474°
Mean anomaly
223.011°
Eccentric anomaly
222.97787°
Mean motion
3.80082 °/min
Orbital period
94.72 mins
BSTAR
0.0007452
Loading maneuver chart data...
Computing Atmospheric mass density...

Documentation

Showing up to 5 results
|